[[{"header":{"parameterUnit":"m.s-1","parameterCategory":1,"la1":30.2991,"la2":30.254,"lo1":-89.0895,"lo2":-89.0444,"dy":0.0017,"dx":0.0017,"nx":28,"ny":28,"refTime":"2024-05-31T09:00:00:Z","depth":0,"parameterNumber":2,"parameterNumberName":"U-component_of_WINDS"},"data":[0,0,0,0,0,0,0,0,0,0,0,0,0,0,0,0,0,0,0,0,0,0,0,0,0,0,0,0,0,0,0,0,0,0,0,0,0,0,0,0,0,0,0,0,0,0,0,0,0,0,0,0,0,0,0,0,0,0,-1.764,-1.7642,0,-1.7761,-1.7763,-1.7764,-1.7817,-1.7817,-1.7816,-1.7816,-1.7936,-1.7939,-1.7943,0,0,0,0,0,0,0,0,0,0,0,0,0,-1.7453,-1.7456,-1.764,-1.7642,-1.7643,-1.7761,-1.7763,-1.7764,-1.7817,-1.7817,-1.7816,-1.7816,-1.7935,-1.7939,-1.7943,0,0,0,0,0,0,0,0,0,0,0,0,0,-1.755,-1.7457,-1.764,-1.7684,-1.7689,-1.7761,-1.7763,-1.7765,-1.7817,-1.7817,-1.7816,-1.7816,-1.7934,-1.7939,-1.7944,-1.798,0,0,-1.7959,-1.7961,0,0,0,0,0,0,0,0,-1.7544,-1.7557,-1.7676,-1.7681,-1.7687,-1.7774,-1.7741,-1.7837,-1.7817,-1.7768,-1.7816,-1.7816,-1.7882,-1.7891,-1.7914,-1.7985,-1.799,-1.7959,-1.7962,-1.7965,-1.7966,0,0,0,0,0,0,0,-1.7537,-1.7552,-1.7688,-1.7677,-1.7684,-1.7697,-1.771,-1.7759,-1.7825,-1.7772,-1.7777,-1.779,-1.7885,-1.7909,-1.7918,-1.7992,-1.7959,-1.7964,-1.7967,-1.7969,-1.81,-1.81,0,0,0,0,0,0,-1.7524,-1.7546,-1.7684,-1.7692,-1.7614,-1.77,-1.7715,-1.7746,-1.7825,-1.7836,-1.779,-1.7792,-1.7901,-1.7912,-1.7922,-1.797,-1.7965,-1.7969,-1.7972,-1.8099,-1.81,-1.81,0,0,0,0,0,0,-1.752,-1.7536,-1.7679,-1.762,-1.7639,-1.7704,-1.7738,-1.7749,-1.7773,-1.7838,-1.785,-1.7803,-1.7901,-1.7915,-1.7966,-1.7975,-1.7972,-1.7976,-1.8099,-1.8099,-1.81,-1.8066,0,0,0,0,0,0,-1.7514,-1.7534,-1.7549,-1.762,-1.7642,-1.7721,-1.7738,-1.7751,-1.7782,-1.7786,-1.7854,-1.7865,-1.7902,-1.7958,-1.797,-1.7982,-1.798,-1.8098,-1.8099,-1.81,-1.8067,-1.8066,-1.8065,0,0,0,0,0,-1.7507,-1.7533,-1.7549,-1.7566,-1.7662,-1.7722,-1.7734,-1.7778,-1.7783,-1.7798,-1.784,-1.7862,-1.7972,-1.7962,-1.7977,-1.799,-1.8098,-1.8099,-1.81,-1.8067,-1.8066,-1.8065,0,0,0,0,0,0,-1.746,-1.7543,-1.7562,-1.7612,-1.766,-1.7731,-1.7751,-1.7775,-1.7821,-1.7823,-1.7874,-1.7889,-1.7935,-1.7968,-1.7956,-1.803,-1.8037,-1.8041,-1.8007,-1.8006,-1.8005,-1.7996,-1.7984,0,0,0,0,0,-1.7456,-1.7498,-1.7568,-1.7606,-1.7629,-1.7686,-1.7713,-1.7743,-1.7794,-1.7814,-1.786,-1.7907,-1.7953,-1.7981,-1.8026,-1.8072,-1.8087,-1.8088,-1.8087,-1.8086,-1.8089,-1.8116,-1.8117,-1.8104,-1.8104,-1.8104,0,0,-1.7447,-1.7498,-1.7521,-1.7598,-1.7638,-1.768,-1.7702,-1.7746,-1.7777,-1.782,-1.7871,-1.7906,-1.7963,-1.8011,-1.8035,-1.804,-1.8096,-1.8087,-1.8086,-1.809,-1.8117,-1.8118,-1.812,-1.8105,-1.8104,-1.8104,0,0,-1.7452,-1.7495,-1.7531,-1.7572,-1.7633,-1.7671,-1.768,-1.7748,-1.7773,-1.7826,-1.7859,-1.7897,-1.7974,-1.8013,-1.8043,-1.8065,-1.8087,-1.8078,-1.8072,-1.8098,-1.8099,-1.81,-1.8109,-1.8111,-1.808,-1.808,-1.808,0,-1.7433,-1.7499,-1.7546,-1.7589,-1.7622,-1.7664,-1.7701,-1.7738,-1.781,-1.7831,-1.7837,-1.7935,-1.7976,-1.8034,-1.804,-1.8063,-1.8074,-1.807,-1.8095,-1.8097,-1.8099,-1.8107,-1.811,-1.8079,-1.8079,-1.8079,-1.8079,0,-1.7472,-1.7517,-1.7539,-1.761,-1.7645,-1.7685,-1.7738,-1.7768,-1.7795,-1.7832,-1.7885,-1.7936,-1.7992,-1.8009,-1.8034,-1.8071,-1.8073,-1.8086,-1.8094,-1.8098,-1.8107,-1.811,-1.8077,-1.8077,-1.8078,-1.8078,0,0,-1.7451,-1.7549,-1.7556,-1.7589,-1.766,-1.7696,-1.7737,-1.7794,-1.7819,-1.7867,-1.7903,-1.7968,-1.7981,-1.8015,-1.8046,-1.8069,-1.8084,-1.808,-1.8082,-1.8079,-1.8127,-1.8117,-1.812,-1.8099,-1.81,-1.8101,-1.8123,0,-1.7466,-1.7543,-1.7588,-1.7646,-1.7689,-1.773,-1.7766,-1.7814,-1.785,-1.789,-1.793,-1.7975,-1.7989,-1.801,-1.8034,-1.8076,-1.8094,-1.8076,-1.8132,-1.8134,-1.8117,-1.8124,-1.8114,-1.8132,-1.8126,-1.8127,-1.8128,0,-1.7494,-1.7544,-1.7607,-1.7675,-1.7694,-1.7726,-1.7782,-1.7821,-1.7875,-1.79,-1.7939,-1.797,-1.8015,-1.8019,-1.8082,-1.8068,-1.8094,-1.8118,-1.812,-1.8127,-1.8131,-1.8132,-1.8139,-1.8142,-1.8133,-1.8133,-1.8132,0,-1.7473,-1.7555,-1.7604,-1.7631,-1.7711,-1.7732,-1.7766,-1.7821,-1.7853,-1.7902,-1.7923,-1.7976,-1.8004,-1.8044,-1.8089,-1.8088,-1.8147,-1.8155,-1.8168,-1.8167,-1.8178,-1.8177,-1.819,-1.8195,-1.8195,-1.8195,-1.8195,0,-1.7485,-1.7522,-1.7596,-1.7625,-1.7668,-1.7719,-1.776,-1.7797,-1.7845,-1.7883,-1.7921,-1.7955,-1.8012,-1.8053,-1.8088,-1.8135,-1.8147,-1.8168,-1.8177,-1.8165,-1.8162,-1.8182,-1.8182,-1.8195,-1.8195,-1.8195,-1.8195,0,-1.7468,-1.7519,-1.7575,-1.7647,-1.7666,-1.7694,-1.7755,-1.7786,-1.7824,-1.7871,-1.7885,-1.7945,-1.7996,-1.8044,-1.8111,-1.8135,-1.8181,-1.8193,-1.8163,-1.8168,-1.8179,-1.8177,-1.8205,-1.8211,-1.8211,-1.8211,-1.8211,0,-1.7473,-1.7503,-1.7579,-1.7607,-1.7641,-1.7686,-1.7719,-1.7771,-1.7803,-1.7869,-1.7891,-1.7945,-1.799,-1.8069,-1.8118,-1.8169,-1.8182,-1.8189,-1.819,-1.8177,-1.8183,-1.8181,-1.8184,-1.8187,-1.8187,-1.8187,-1.8187,0,-1.7477,-1.75,-1.7547,-1.7603,-1.7642,-1.7688,-1.7736,-1.7756,-1.7817,-1.7851,-1.7904,-1.794,-1.8009,-1.8062,-1.812,-1.8154,-1.818,-1.8186,-1.8192,-1.818,-1.8161,-1.8172,-1.816,-1.8185,-1.8185,-1.8185,-1.8185,-1.8185,-1.7471,-1.75,-1.7558,-1.7609,-1.765,-1.7694,-1.7727,-1.777,-1.7815,-1.7877,-1.7904,-1.7957,-1.8012,-1.8092,-1.8126,-1.8168,-1.8174,-1.8183,-1.8185,-1.8186,-1.8184,-1.8155,-1.8179,-1.8179,-1.8179,-1.8179,-1.8179,0,-1.7477,-1.7517,-1.7563,-1.7629,-1.7669,-1.7692,-1.7746,-1.7778,-1.7825,-1.7874,-1.7919,-1.798,-1.8031,-1.8085,-1.8139,-1.8162,-1.8176,-1.8175,-1.8174,-1.8181,-1.8175,-1.8165,-1.8163,-1.8163,-1.8163,-1.8163,-1.8163,-1.8163,-1.7485,-1.7535,-1.7566,-1.7637,-1.7676,-1.773,-1.7759,-1.7799,-1.7839,-1.7905,-1.7949,-1.7984,-1.8035,-1.8094,-1.8142,-1.8156,-1.8175,-1.817,-1.8188,-1.8181,-1.8182,-1.8183,-1.8173,-1.8174,-1.8174,-1.8191,-1.8191,-1.8191]},{"header":{"parameterUnit":"m.s-1","parameterCategory":1,"la1":30.2991,"la2":30.254,"lo1":-89.0895,"lo2":-89.0444,"dy":0.0017,"dx":0.0017,"nx":28,"ny":28,"refTime":"2024-05-31T09:00:00:Z","depth":0,"parameterNumber":3,"parameterNumberName":"V-component_of_WINDS"},"data":[0,0,0,0,0,0,0,0,0,0,0,0,0,0,0,0,0,0,0,0,0,0,0,0,0,0,0,0,0,0,0,0,0,0,0,0,0,0,0,0,0,0,0,0,0,0,0,0,0,0,0,0,0,0,0,0,0,0,5.2234,5.2233,0,5.2194,5.2194,5.2193,5.2065,5.2062,5.2059,5.2056,5.2019,5.202,5.2022,0,0,0,0,0,0,0,0,0,0,0,0,0,5.2202,5.2203,5.2234,5.2233,5.2233,5.2194,5.2194,5.2193,5.2065,5.2062,5.2058,5.2055,5.2018,5.202,5.2022,0,0,0,0,0,0,0,0,0,0,0,0,0,5.2194,5.2203,5.2234,5.2164,5.2157,5.2194,5.2194,5.2193,5.2066,5.2062,5.2057,5.2053,5.2017,5.202,5.2022,5.2124,0,0,5.203,5.2031,0,0,0,0,0,0,0,0,5.2195,5.2196,5.2175,5.2169,5.2162,5.213,5.2168,5.217,5.2067,5.2101,5.2056,5.2051,5.2059,5.2058,5.206,5.2122,5.2121,5.203,5.2032,5.2033,5.2034,0,0,0,0,0,0,0,5.2196,5.2197,5.2218,5.2175,5.2167,5.2136,5.213,5.2168,5.2105,5.2098,5.2088,5.2085,5.2055,5.2058,5.2058,5.212,5.203,5.2032,5.2034,5.2035,5.2262,5.2267,0,0,0,0,0,0,5.2206,5.2198,5.2219,5.2217,5.2168,5.214,5.2134,5.2144,5.2104,5.2094,5.2089,5.2079,5.2056,5.2056,5.2057,5.217,5.2033,5.2035,5.2037,5.2258,5.2263,5.2268,0,0,0,0,0,0,5.2205,5.2209,5.2221,5.2205,5.2204,5.2145,5.2158,5.2146,5.2149,5.2097,5.2086,5.2103,5.2053,5.2053,5.2108,5.2167,5.2036,5.2039,5.2253,5.226,5.2266,5.2401,0,0,0,0,0,0,5.2205,5.2209,5.2246,5.2206,5.2205,5.2272,5.2162,5.2148,5.2153,5.214,5.2108,5.2098,5.2049,5.2105,5.211,5.2168,5.2041,5.2247,5.2256,5.2264,5.2391,5.2412,5.2429,0,0,0,0,0,5.2204,5.2287,5.2249,5.2252,5.225,5.2275,5.2275,5.2215,5.2159,5.2195,5.2163,5.2099,5.2161,5.2111,5.2116,5.2177,5.2243,5.2253,5.2263,5.2382,5.2407,5.2429,0,0,0,0,0,0,5.2336,5.228,5.2237,5.2309,5.2298,5.2254,5.2298,5.2245,5.225,5.2237,5.2165,5.2159,5.2223,5.2206,5.2151,5.2272,5.2191,5.2203,5.228,5.2304,5.2323,5.2324,5.2043,0,0,0,0,0,5.2373,5.2397,5.2348,5.2417,5.2413,5.2357,5.2366,5.2322,5.2307,5.2302,5.2273,5.2262,5.2279,5.2291,5.2304,5.239,5.238,5.2434,5.2453,5.2469,5.2479,5.2521,5.2544,5.2302,5.2302,5.2302,0,0,5.245,5.2423,5.2443,5.2442,5.2428,5.2455,5.2354,5.2387,5.2406,5.2307,5.2355,5.2335,5.2318,5.2388,5.2418,5.2376,5.2544,5.2482,5.2495,5.2496,5.2534,5.2557,5.2577,5.2309,5.2308,5.2306,0,0,5.2604,5.2587,5.264,5.2629,5.2608,5.2571,5.2585,5.2549,5.2531,5.2579,5.2504,5.2528,5.2559,5.2549,5.2548,5.2701,5.2643,5.2708,5.2807,5.2849,5.2868,5.2884,5.2936,5.2956,5.2719,5.2719,5.272,0,5.2702,5.2738,5.2675,5.2712,5.2714,5.2626,5.268,5.2673,5.2659,5.2662,5.2616,5.2652,5.2635,5.2701,5.2738,5.2742,5.2754,5.2709,5.287,5.2886,5.2901,5.2949,5.2969,5.2727,5.2726,5.2725,5.2725,0,5.2859,5.2886,5.2932,5.2919,5.2927,5.2973,5.2917,5.2933,5.289,5.2858,5.2908,5.2885,5.289,5.2904,5.2862,5.2964,5.2938,5.2883,5.2799,5.2932,5.2976,5.2995,5.2738,5.2735,5.2733,5.2731,0,0,5.3089,5.3042,5.306,5.3052,5.3025,5.3045,5.3089,5.3093,5.3107,5.3102,5.3135,5.3164,5.3112,5.3112,5.3069,5.3107,5.3226,5.3046,5.3045,5.3077,5.3335,5.3374,5.3396,5.319,5.3193,5.3196,5.3335,0,5.3232,5.3299,5.3245,5.3323,5.3346,5.3265,5.3303,5.3291,5.3263,5.328,5.325,5.3271,5.3203,5.3201,5.3236,5.3205,5.3276,5.3195,5.3218,5.322,5.322,5.342,5.3461,5.3593,5.3352,5.3355,5.3357,0,5.3405,5.3406,5.3486,5.3453,5.3461,5.3495,5.3495,5.3513,5.3499,5.3476,5.3477,5.3424,5.3465,5.3387,5.3441,5.3386,5.3394,5.3381,5.3385,5.3381,5.3293,5.3418,5.3634,5.3653,5.3385,5.3382,5.338,0,5.3561,5.3583,5.3633,5.363,5.3594,5.362,5.3606,5.3587,5.3594,5.3596,5.3599,5.3606,5.3609,5.3616,5.3567,5.3516,5.3628,5.3546,5.3609,5.361,5.3632,5.363,5.3848,5.3645,5.3644,5.3644,5.3644,0,5.3722,5.3774,5.3702,5.3732,5.3788,5.3727,5.3784,5.3762,5.3747,5.3772,5.3705,5.373,5.3666,5.3686,5.3648,5.3698,5.3701,5.3683,5.3672,5.3687,5.3688,5.3687,5.3675,5.3649,5.3648,5.3647,5.3646,0,5.3903,5.3857,5.3906,5.3869,5.3861,5.3903,5.3871,5.3898,5.3868,5.3901,5.3905,5.3858,5.3877,5.383,5.3843,5.3818,5.3888,5.3864,5.3892,5.3883,5.3947,5.3941,5.4169,5.4195,5.3978,5.3981,5.3982,0,5.4007,5.4044,5.4011,5.4022,5.4012,5.4033,5.4039,5.3982,5.3991,5.3978,5.4007,5.4021,5.4028,5.4063,5.403,5.404,5.4013,5.4093,5.4014,5.4027,5.401,5.4006,5.4009,5.4107,5.411,5.4112,5.4114,0,5.4195,5.4171,5.4181,5.4185,5.4194,5.4195,5.4191,5.4205,5.4144,5.4158,5.4176,5.4182,5.4196,5.421,5.4212,5.4199,5.4147,5.414,5.4154,5.4167,5.418,5.4171,5.3932,5.4134,5.4132,5.413,5.4129,5.4128,5.4337,5.4366,5.4347,5.4361,5.4353,5.4351,5.4373,5.4346,5.436,5.4365,5.4332,5.4358,5.4343,5.4341,5.4334,5.4354,5.4318,5.434,5.4344,5.4349,5.4358,5.4181,5.4355,5.4354,5.4354,5.4353,5.4353,0,5.4518,5.4502,5.4517,5.4512,5.4524,5.4475,5.4468,5.4481,5.4504,5.4495,5.4504,5.4526,5.454,5.4509,5.4518,5.454,5.4516,5.4544,5.4539,5.4537,5.4392,5.4376,5.4563,5.4563,5.4563,5.4563,5.4563,5.4563,5.4613,5.4659,5.4633,5.4674,5.4658,5.4682,5.4682,5.468,5.4672,5.4699,5.471,5.469,5.4672,5.468,5.4691,5.4681,5.4686,5.4722,5.4704,5.4568,5.4547,5.4528,5.4513,5.4725,5.4725,5.4847,5.4848,5.4849]}]]